Showing default

FALCONSAT-10, 58291

Orbit data source: Space-Track

FALCONSAT-10, 58291 is a payload satellite owned by USAF Academy (US) in SSO that was launched on Sat, 11 Nov 2023 UTC via an FALCON 9 launch vehicle from the Air Force Western Test Range (AFWTR). Payload-class satellites include a variety of spacecraft equipped with specific instruments for various scientific and technological missions. These include communications satellites like Starlink; space stations such as the ISS; scientific satellites like the Hubble; Earth observation satellites from companies like Planet Labs, Umbra, and HawkEye 360; GPS; miniature CubeSats for education and research; and military/defense satellites.

Loading next visibility...
Identifier
58291, 2023-174AM
Orbit
SSO
Country
Flag of USUS
Related business
Manufacturer
USAF Academy
Mission
Operational Defense Technology
Bus & Motor
FALCONSAT, Unknown motor
Mass
140 kg wet, 140 kg dry
Launch date (UTC)
2023-11-11 (3 years ago)
Launch vehicle
FALCON 9
Launch site
Air Force Western Test Range (AFWTR)
Object type
Payload
Rocket body
Debris
Shape & HBR
Box, 0.5 m
Radar Cross Section
0.780 m², Medium (>0.1 m² and < 1m²)

Expand to show TLE details & history
Last TLE update: 3 days ago

TLE from 3 days ago
0 FALCONSAT-10
1 58291U 23174AM  26170.78364433  .00003891  00000-0  14640-3 0  9995
2 58291  97.3800 246.8053 0008778 168.3196 191.8249 15.27696778145165
Epoch: 2026-06-19T18:48Z
TLE epoch observation values (Epoch: 2026-06-19T18:48:26.870Z)
Latitude
0.00003°
Longitude
56.68568°
Altitude
491.697 km
Speed
7.616 km/s
True Right ascension
16h 27m 13s
True Declination
0° 00' 00"
Sunlit
Object was in full shadow at epoch
Visualization orbit readout
Latitude
Unknown
Longitude
Unknown
Altitude
Unknown
Speed
Unknown
Apparent Right ascension
Unknown
Apparent Declination
Unknown
Sunlit
N/A
Visualization observer readout
Local Sidereal Time
21:39:10
Azimuth
Unknown
Elevation
Unknown
Doppler factor
Unknown
Orbital elements
Apogee altitude
485.674 km
Perigee altitude
473.634 km
Semi-major axis
6,857.791 km
Eccentricity
0.00088
Inclination
97.38°
RAAN
246.8053°
Arg. of periapsis
168.3196°
True anomaly
191.80431°
Mean anomaly
191.8249°
Eccentric anomaly
191.8146°
Mean motion
3.82179 °/min
Orbital period
94.2 mins
BSTAR
0.0001464
Loading maneuver chart data...
Computing Atmospheric mass density...

Documentation

Showing up to 5 results
|